User: anonymous   Login
Location: Caltech
(34.1382°N, 118.1253°W)
Time: 20:21:05
(UTC-08:00)
Language:

Cosmos 1939 Rocket - Orbit

View from above orbital plane
View from above orbital plane
View from above satellite
View from above satellite

Ground track
Ground track

The orbit data is extracted from the following two-line orbital elements,

1 19046U 88032B   17020.85176491 -.00000245  00000-0 -13745-4 0  9999
2 19046  97.5539  71.8666 0042291 108.0335 252.5505 15.02134795550520
Epoch (UTC): 20 January 2017 20:26:32
Eccentricity: 0.0042291
inclination: 97.5539°
perigee height: 531 km
apogee height: 589 km
right ascension of ascending node: 71.8666°
argument of perigee: 108.0335°
revolutions per day: 15.02134795
mean anomaly at epoch: 252.5505°
orbit number at epoch: 55052

The dashed part of the orbit path shows where the satellite is in the earth's shadow,  

DLR